Powerscourt Airfield

Jump to: basic info | weather | comments

Related pages: nearby airports | nearby navaids | notams | map

Basic information (top)

Codes: EIPT
Location: lon 53.178301, lat -6.196495, elev 470 ft / 143 m msl
Status: small_airport

Weather (top)

Current conditions for Casement Air Base 12nm (22km) NW (rec'd 2014/12/19 18:00Z):

EIME 191800Z 23014KT 9999 FEW025 05/03 Q1019

Airport forecast for Dublin Airport 15nm (27km) N (rec'd 2014/12/19 18:25Z):

TAF EICK 191700Z 1918/2018 25010KT 9999 SCT020 SCT040= TAF EIDW 191700Z 1918/2018 26020KT 9999 FEW020 SCT040 
      BECMG 2010/2012 26015KT

Latest comments (top)

Reopened: does anybody know about reopening and ppr? [read]

Operations suspended at this airport: Air Accident Investigation Unit Interim ... [read]

re: Powerscourt Airfield: Thank you very much - I've updated the position. [read]

Powerscourt Airfield: Position 53:10.787N 006:12.075W ... [read]

More... (top)

See also NOTAMs and nearby airports and navaids, or visit the Powerscourt Airfield page at the main OurAirports website..